Petersburg, AK

2:32 PM AKST on February 24, 2017 (GMT -0900)
Johnson Petersburg

Weather History for PAPG - February, 2015

Change the Weather History Date:

Monday, February 9, 2015

  Actual Average Record
Temperature  
Mean Temperature 28 °F -  
Max Temperature 30 °F 35 °F 51 °F (2012)
Min Temperature 26 °F 27 °F 5 °F (1985)
Degree Days  
Heating Degree Days 37    
Moisture  
Dew Point 24 °F    
Average Humidity 86    
Maximum Humidity 93    
Minimum Humidity 80    
Precipitation  
Precipitation 0.01 in - - ()
Sea Level Pressure  
Sea Level Pressure 29.99 in    
Wind  
Wind Speed 2 mph (ENE)    
Max Wind Speed 6 mph    
Max Gust Speed -    
Visibility 7 miles    
Events Snow    
Averages and records for this station are not official NWS values.
T = Trace of Precipitation, MM = Missing Value Source: NWS Daily Summary

Daily Weather History Graph

Daily Weather History Graph

Search for Another Location

Airport or City:

Trip Planner

Search our weather history database for the weather conditions in past years. The results will help you decide how hot, cold, wet, or windy it might be!

Date:

Astronomy

Feb. 09, 2015 Rise Set
Actual Time 7:33 AM AKST 4:39 PM AKST
Civil Twilight 6:52 AM AKST 5:20 PM AKST
Nautical Twilight 6:07 AM AKST 6:05 PM AKST
Astronomical Twilight 5:23 AM AKST 6:49 PM AKST
Moon 11:31 PM AKST (2/9) 9:10 AM AKST (2/9)
Length of Visible Light 10h 27m
Length of Day
9h 06m
Waning Gibbous, 72% of the Moon is Illuminated
Feb 9
Waning Gibbous
Feb 11
Last Quarter
Feb 18
New
Feb 25
First Quarter
Mar 5
Full

Hourly Weather History & Observations

Time (AKST) Temp. Windchill Dew Point Humidity Pressure Visibility Wind Dir Wind Speed Gust Speed Precip Events Conditions
12:36 AM 26.6 °F 22.6 °F 23.0 °F 86% 29.90 in 10.0 mi SW 3.5 mph - N/A   Overcast
12:56 AM 26.6 °F 22.6 °F 23.0 °F 86% 29.89 in 10.0 mi SW 3.5 mph - N/A   Overcast
1:16 AM 26.6 °F - 23.0 °F 86% 29.89 in 10.0 mi Calm Calm - N/A   Overcast
1:36 AM 26.6 °F 21.2 °F 21.2 °F 80% 29.89 in 10.0 mi WSW 4.6 mph - N/A   Overcast
2:36 AM 26.6 °F - 23.0 °F 86% 29.89 in 10.0 mi Calm Calm - N/A   Overcast
2:56 AM 26.6 °F 21.2 °F 21.2 °F 80% 29.90 in 10.0 mi WSW 4.6 mph - N/A   Overcast
3:36 AM 26.6 °F 22.6 °F 21.2 °F 80% 29.90 in 10.0 mi WSW 3.5 mph - N/A   Overcast
3:56 AM 26.6 °F - 23.0 °F 86% 29.90 in 10.0 mi Calm Calm - N/A   Overcast
4:36 AM 26.6 °F - 21.2 °F 80% 29.91 in 10.0 mi Calm Calm - N/A   Mostly Cloudy
4:56 AM 26.6 °F - 23.0 °F 86% 29.91 in 10.0 mi Calm Calm - N/A   Overcast
5:36 AM 26.6 °F - 21.2 °F 80% 29.92 in 10.0 mi Calm Calm - N/A   Overcast
5:56 AM 26.6 °F - 21.2 °F 80% 29.92 in 10.0 mi Calm Calm - N/A   Overcast
6:36 AM 26.6 °F - 23.0 °F 86% 29.93 in 10.0 mi Calm Calm - N/A   Mostly Cloudy
6:56 AM 26.6 °F - 23.0 °F 86% 29.93 in 10.0 mi Calm Calm - N/A   Mostly Cloudy
7:16 AM 26.6 °F - 23.0 °F 86% 29.94 in 10.0 mi Calm Calm - 0.01 in   Mostly Cloudy
7:36 AM 26.6 °F - 23.0 °F 86% 29.94 in 10.0 mi Calm Calm - 0.01 in   Mostly Cloudy
7:56 AM 26.6 °F - 23.0 °F 86% 29.94 in 10.0 mi Calm Calm - 0.01 in   Mostly Cloudy
8:16 AM 26.6 °F - 23.0 °F 86% 29.94 in 10.0 mi Calm Calm - N/A   Mostly Cloudy
8:56 AM 26.6 °F - 23.0 °F 86% 29.95 in 10.0 mi Calm Calm - N/A   Mostly Cloudy
9:56 AM 26.6 °F - 24.8 °F 93% 29.97 in 5.0 mi Calm Calm - N/A   Overcast
10:36 AM 28.4 °F 24.6 °F 24.8 °F 86% 29.98 in 5.0 mi NE 3.5 mph - N/A   Overcast
10:56 AM 28.4 °F 23.3 °F 24.8 °F 86% 29.98 in 7.0 mi NE 4.6 mph - N/A   Mostly Cloudy
11:16 AM 28.4 °F 23.3 °F 24.8 °F 86% 29.99 in 7.0 mi ENE 4.6 mph - N/A   Mostly Cloudy
11:36 AM 28.4 °F 23.3 °F 24.8 °F 86% 29.99 in 7.0 mi NE 4.6 mph - N/A   Mostly Cloudy
11:56 AM 28.4 °F 23.3 °F 24.8 °F 86% 29.99 in 5.0 mi NE 4.6 mph - N/A   Overcast
12:16 PM 28.4 °F 24.6 °F 24.8 °F 86% 29.99 in 5.0 mi ENE 3.5 mph - N/A   Overcast
12:36 PM 28.4 °F 23.3 °F 24.8 °F 86% 29.99 in 5.0 mi ENE 4.6 mph - N/A   Overcast
1:16 PM 28.4 °F 22.2 °F 26.6 °F 93% 30.00 in 5.0 mi East 5.8 mph - N/A   Overcast
1:36 PM 30.2 °F 24.3 °F 26.6 °F 86% 30.00 in 5.0 mi ENE 5.8 mph - N/A   Overcast
1:56 PM 30.2 °F 25.4 °F 26.6 °F 86% 30.00 in 5.0 mi East 4.6 mph - N/A   Overcast
2:16 PM 30.2 °F 25.4 °F 26.6 °F 86% 30.00 in 5.0 mi NE 4.6 mph - N/A   Overcast
2:36 PM 30.2 °F 26.7 °F 26.6 °F 86% 30.01 in 5.0 mi ENE 3.5 mph - N/A   Overcast
2:56 PM 30.2 °F 25.4 °F 26.6 °F 86% 30.01 in 3.0 mi East 4.6 mph - N/A   Overcast
3:16 PM 30.2 °F 24.3 °F 26.6 °F 86% 30.01 in 3.0 mi East 5.8 mph - N/A   Overcast
3:56 PM 30.2 °F 26.7 °F 26.6 °F 86% 30.00 in 1.5 mi ENE 3.5 mph - N/A   Overcast
4:16 PM 30.2 °F 25.4 °F 26.6 °F 86% 30.00 in 1.5 mi NE 4.6 mph - N/A   Overcast
4:36 PM 28.4 °F 22.2 °F 26.6 °F 93% 30.01 in 1.5 mi ENE 5.8 mph - N/A   Overcast
4:56 PM 28.4 °F - 24.8 °F 86% 30.01 in 1.5 mi Calm Calm - N/A Snow Light Snow
5:16 PM 28.4 °F - 26.6 °F 93% 30.02 in 1.5 mi Calm Calm - N/A   Overcast
5:36 PM 30.2 °F 26.7 °F 26.6 °F 86% 30.03 in 1.5 mi ENE 3.5 mph - N/A   Overcast
5:56 PM 30.2 °F - 26.6 °F 86% 30.03 in 10.0 mi Calm Calm - N/A Snow Light Snow
6:56 PM 28.4 °F 22.2 °F 26.6 °F 93% 30.03 in 3.0 mi ENE 5.8 mph - N/A   Overcast
7:36 PM 28.4 °F - 24.8 °F 86% 30.03 in 3.0 mi Calm Calm - N/A   Overcast
7:56 PM 28.4 °F - 24.8 °F 86% 30.04 in 3.0 mi Calm Calm - N/A   Overcast
8:16 PM 28.4 °F - 24.8 °F 86% 30.05 in 3.0 mi Calm Calm - N/A   Overcast
8:36 PM 28.4 °F - 24.8 °F 86% 30.06 in 3.0 mi Calm Calm - N/A   Overcast
8:56 PM 28.4 °F - 24.8 °F 86% 30.06 in 5.0 mi Calm Calm - N/A   Overcast
9:16 PM 28.4 °F - 24.8 °F 86% 30.06 in 5.0 mi Calm Calm - N/A   Overcast
9:36 PM 28.4 °F - 24.8 °F 86% 30.06 in 5.0 mi Calm Calm - N/A   Overcast
9:56 PM 28.4 °F - 24.8 °F 86% 30.05 in 5.0 mi Calm Calm - N/A   Overcast
10:16 PM 28.4 °F - 24.8 °F 86% 30.06 in 10.0 mi Calm Calm - N/A   Overcast
10:36 PM 28.4 °F - 23.0 °F 80% 30.07 in 10.0 mi Calm Calm - N/A   Overcast
11:16 PM 28.4 °F - 24.8 °F 86% 30.08 in 10.0 mi Calm Calm - N/A   Overcast
11:36 PM 28.4 °F - 24.8 °F 86% 30.08 in 10.0 mi Calm Calm - N/A   Overcast
11:56 PM 26.6 °F 21.2 °F 24.8 °F 93% 30.08 in 10.0 mi NE 4.6 mph - N/A   Overcast